Weather observations for the past three days for
Seward
Metric (Imperial)
Date Time (akdt) Wind (kph) Vis. (km) Weather Sky Cond. Temperature (ºC) Relative Humidity Wind Chill (°C) Heat Index (°C) Pressure Precipitation (cm)
Air Dwpt 6 hour altimeter (cm) sea level (mb) 1 hr 3 hr 6 hr
Max. Min.
04 14:53 SE 6 16.09 Overcast FEW027 OVC036 13.3 9.4 77% 76.61 1021.3
04 13:53 Calm 16.09 Overcast BKN028 OVC034 12.2 8.9 80% 76.63 1021.7
04 12:53 Calm 16.09 Overcast OVC026 12.2 7.2 72% 76.63 1021.7
04 11:53 Calm 16.09 Overcast OVC031 11.1 7.2 77% 76.61 1021.5
04 10:53 SE 6 16.09 Overcast OVC038 10 7.8 86% 76.61 1021.2
04 09:53 Calm 16.09 Overcast OVC050 9.4 7.2 9.4 3.3 86% 76.61 1021.3
04 08:53 N 7 16.09 Fair CLR 6.7 5.6 93% 6 76.63 1021.5
04 07:53 N 6 16.09 Fair CLR 3.9 3.9 100% 76.66 1021.9
04 06:53 N 6 16.09 Fair CLR 3.9 3.3 96% 76.66 1021.9
04 05:53 N 7 16.09 Fair CLR 4.4 3.9 97% 3 76.63 1021.6
04 04:53 N 6 16.09 Fair CLR 4.4 3.9 97% 76.63 1021.6
04 02:53 N 9 16.09 Mostly Cloudy BKN048 5.6 5 96% 4 76.61 1021.4
04 01:53 N 9 16.09 Mostly Cloudy BKN047 5.6 4.4 92% 4 76.58 1021.0
04 00:53 Calm 16.09 Fair CLR 6.1 5 93% 76.58 1020.9
03 23:53 NE 6 16.09 Fair CLR 6.7 5.6 93% 76.58 1020.9
03 22:53 Calm 16.09 Fair CLR 7.2 5.6 90% 76.58 1020.9
03 21:53 Calm 16.09 Fair CLR 8.3 6.7 16.7 8.3 90% 76.56 1020.7
03 20:53 SW 6 16.09 Fair CLR 12.8 5.6 62% 76.53 1020.4
03 19:53 Calm 16.09 Fair CLR 13.3 6.7 65% 76.53 1020.4
03 18:53 S 11 16.09 Fair CLR 14.4 6.7 60% 76.53 1020.2
03 17:53 S 13 16.09 Fair CLR 15.6 8.3 62% 76.5 1019.9
03 16:53 S 20 16.09 Fair CLR 16.1 6.1 52% 76.5 1020.0
03 15:53 SE 26 16.09 Fair CLR 15.6 5 16.7 11.7 50% 76.5 1020.1
03 14:53 Vrbl 6 16.09 Fair CLR 16.1 6.7 54% 76.5 1020.0
03 13:53 Vrbl 9 16.09 Fair CLR 16.7 4.4 44% 76.48 1019.6
03 12:53 S 13 16.09 Fair CLR 14.4 6.7 60% 76.48 1019.6
03 11:53 SW 7 16.09 Fair CLR 15.6 5.6 52% 76.45 1019.1
03 10:53 N 7 16.09 Fair CLR 13.9 2.8 47% 76.45 1019.2
03 09:53 N 15 16.09 Fair CLR 11.7 2.2 11.7 8.3 52% 76.45 1019.1
03 08:53 N 17 16.09 Fair CLR 10 2.2 59% 8 76.4 1018.5
03 07:53 N 19 16.09 Fair CLR 8.9 2.2 63% 6 76.38 1018.4
03 06:53 N 22 16.09 Fair CLR 8.3 2.2 66% 5 76.35 1017.9
03 05:53 N 24 16.09 Fair CLR 8.9 2.2 63% 6 76.35 1018.0
03 04:53 N 20 G 33 16.09 Fair CLR 8.3 1.7 63% 5 76.35 1018.0
03 03:53 N 24 16.09 Fair CLR 9.4 1.1 13.9 8.9 56% 7 76.33 1017.6
03 02:53 N 22 16.09 Fair CLR 10 1.1 54% 7 76.3 1017.1
03 01:53 N 19 16.09 Fair CLR 11.7 0.6 47% 76.25 1016.4
03 00:53 N 20 G 31 16.09 Fair CLR 11.1 1.1 50% 76.23 1016.1
02 23:53 NE 17 16.09 Fair CLR 11.7 1.1 48% 76.2 1016.0
02 22:53 NE 20 G 33 16.09 Fair CLR 13.3 1.1 44% 76.15 1015.1
02 21:53 N 15 16.09 Fair CLR 13.3 1.7 18.9 13.3 46% 76.1 1014.5
02 20:53 NW 19 G 33 16.09 Fair CLR 16.1 -1.1 31% 76.02 1013.4
02 19:53 NW 15 G 41 16.09 Fair CLR 16.7 -1.1 30% 75.97 1012.9
02 18:53 NW 17 G 41 16.09 Fair CLR 17.2 0 31% 75.95 1012.3
02 17:53 NW 24 G 39 16.09 Fair CLR 17.2 -1.1 29% 75.9 1011.8
02 16:53 NW 26 G 46 16.09 Fair CLR 18.3 -0.6 28% 75.87 1011.4
02 15:53 NW 22 G 41 16.09 Fair CLR 18.3 0 18.9 12.8 29% 75.82 1010.9
02 14:53 NW 20 G 41 16.09 Fair CLR 17.8 1.1 33% 75.79 1010.4
02 13:53 NW 22 G 31 16.09 Fair CLR 18.9 0.6 29% 75.74 1009.8
02 12:53 N 20 16.09 Fair CLR 18.3 1.1 32% 75.69 1009.0
02 11:53 N 19 G 31 16.09 Fair CLR 16.7 2.2 38% 75.64 1008.4
02 10:53 NE 22 G 48 16.09 Fair CLR 15 2.2 42% 75.62 1008.0
02 09:53 NE 24 G 41 16.09 Fair CLR 12.8 3.3 12.8 7.8 53% 75.57 1007.3
02 08:53 N 22 G 41 16.09 Fair CLR 10.6 3.3 61% 75.57 1007.3
02 07:53 N 20 G 39 16.09 Fair CLR 8.9 3.3 68% 6 75.51 1006.8
02 06:53 N 22 G 39 16.09 Fair CLR 9.4 2.8 64% 7 75.51 1006.8
02 05:53 N 20 G 37 16.09 Fair CLR 8.3 3.3 71% 5 75.46 1006.0
02 04:53 N 20 16.09 Fair CLR 8.9 3.3 68% 6 75.44 1005.8
02 03:53 N 20 G 37 16.09 Fair CLR 8.9 3.9 13.9 8.9 71% 6 75.41 1005.5
02 02:53 NE 19 G 33 16.09 Fair CLR 10 3.9 66% 8 75.44 1005.7
02 01:53 N 24 G 39 16.09 Fair CLR 11.7 3.9 59% 75.41 1005.5
02 00:53 N 24 G 41 16.09 Fair CLR 11.7 3.9 59% 75.41 1005.5
01 23:53 N 28 G 41 16.09 Fair CLR 12.2 3.3 55% 75.41 1005.3
01 22:53 N 17 16.09 Fair CLR 12.8 2.8 51% 75.39 1005.0
01 21:53 N 20 16.09 Fair CLR 13.9 2.8 18.9 13.3 47% 75.39 1004.9
01 20:53 N 20 16.09 Fair CLR 14.4 2.8 46% 75.34 1004.4
01 19:53 N 9 16.09 Fair CLR 15.6 1.7 39% 75.34 1004.2
01 18:53 NW 17 G 37 16.09 Fair CLR 17.8 0 30% 75.31 1003.9
01 17:53 NW 22 G 37 16.09 Fair CLR 18.3 1.1 32% 75.31 1003.9
01 16:53 NW 22 G 37 16.09 Fair CLR 18.9 0.6 29% 75.31 1004.0
Date Time (akdt) Wind (kph) Vis. (km) Weather Sky Cond. Air Dwpt Max. Min. Relative Humidity Wind Chill (°C) Heat Index (°C) altimeter (cm) sea level (mb) 1 hr 3 hr 6 hr
6 hour
Temperature (ºC) Pressure Precipitation (cm)